When you browse on this site, cookies collect data to enhance your experience and personalize the content and advertising you see.
Visit our Privacy Policy to learn more. By continuing to use the site, you agree to this use of cookies and data.
  • în România
  • Lista ţărilor
  • Pe 7 zile
  • Temperatura apei
  • Hartă satelitară
  • Meteo pe hartă
  • Widget-uri
  • user-avatar
    Intrare

    Meteo pe oră la Lambaréné

    Astăzi, 20 Ianuarie, Duminică

    Timp Temperatura Precipitaţii Vânt Presiune Umiditate
    00:00 +26°C° 0 mm 1 m/s 755 mmHg 96%
    01:00 +24°C° 0 mm 0 m/s 755 mmHg 96%
    02:00 +24°C° 0 mm 0 m/s 755 mmHg 97%
    03:00 +24°C° 0 mm 0 m/s 754 mmHg 97%
    04:00 +23°C° 0 mm 0 m/s 754 mmHg 98%
    05:00 +23°C° 0 mm 0 m/s 754 mmHg 97%
    06:00 +24°C° 0 mm 0 m/s 755 mmHg 97%
    07:00 +24°C° 0 mm 0 m/s 755 mmHg 97%
    08:00 +26°C° 0 mm 0 m/s 755 mmHg 86%
    09:00 +28°C° 0 mm 0 m/s 755 mmHg 76%
    10:00 +31°C° 0 mm 0 m/s 755 mmHg 66%
    11:00 +33°C° 0 mm 1 m/s 755 mmHg 61%
    12:00 +34°C° 0 mm 1 m/s 754 mmHg 56%
    13:00 +35°C° 0 mm 1 m/s 754 mmHg 51%
    14:00 +36°C° 0.1 mm 2 m/s 753 mmHg 52%
    15:00 +36°C° 0.1 mm 2 m/s 753 mmHg 53%
    16:00 +35°C° 0.1 mm 2 m/s 752 mmHg 54%
    17:00 +32°C° 0.9 mm 2 m/s 753 mmHg 66%
    18:00 +30°C° 0.9 mm 2 m/s 753 mmHg 77%
    19:00 +28°C° 0.9 mm 1 m/s 753 mmHg 89%
    20:00 +27°C° 1.1 mm 1 m/s 754 mmHg 90%
    21:00 +27°C° 1.1 mm 1 m/s 755 mmHg 92%
    22:00 +27°C° 1.1 mm 1 m/s 756 mmHg 93%
    23:00 +26°C° 0.1 mm 1 m/s 755 mmHg 94%

    Mâine, 21 Ianuarie, Luni

    Timp Temperatura Precipitaţii Vânt Presiune Umiditate
    00:00 +26°C° 0.1 mm 1 m/s 755 mmHg 94%
    01:00 +26°C° 0.1 mm 1 m/s 755 mmHg 95%
    02:00 +26°C° 0 mm 1 m/s 755 mmHg 96%
    03:00 +26°C° 0 mm 1 m/s 755 mmHg 96%
    04:00 +25°C° 0 mm 1 m/s 754 mmHg 97%
    05:00 +25°C° 0 mm 1 m/s 754 mmHg 97%
    06:00 +26°C° 0 mm 1 m/s 755 mmHg 97%
    07:00 +26°C° 0 mm 1 m/s 755 mmHg 96%
    08:00 +27°C° 0 mm 1 m/s 755 mmHg 88%
    09:00 +29°C° 0 mm 1 m/s 755 mmHg 79%
    10:00 +31°C° 0 mm 1 m/s 755 mmHg 70%
    11:00 +33°C° 0 mm 1 m/s 755 mmHg 64%
    12:00 +34°C° 0 mm 1 m/s 754 mmHg 57%
    13:00 +35°C° 0 mm 1 m/s 753 mmHg 50%
    14:00 +36°C° 0 mm 2 m/s 753 mmHg 52%
    15:00 +36°C° 0 mm 2 m/s 752 mmHg 53%
    16:00 +35°C° 0 mm 2 m/s 751 mmHg 54%
    17:00 +32°C° 0.8 mm 2 m/s 752 mmHg 66%
    18:00 +30°C° 0.8 mm 2 m/s 752 mmHg 77%
    19:00 +28°C° 0.8 mm 1 m/s 753 mmHg 89%
    20:00 +27°C° 0.3 mm 1 m/s 754 mmHg 90%
    21:00 +27°C° 0.3 mm 1 m/s 754 mmHg 92%
    22:00 +27°C° 0.3 mm 1 m/s 755 mmHg 94%
    23:00 +26°C° 0 mm 1 m/s 755 mmHg 94%

    Poimâine, 22 Ianuarie, Marţi

    Timp Temperatura Precipitaţii Vânt Presiune Umiditate
    00:00 +26°C° 0 mm 1 m/s 754 mmHg 95%
    01:00 +26°C° 0 mm 1 m/s 754 mmHg 96%
    02:00 +26°C° 0 mm 1 m/s 754 mmHg 97%
    03:00 +26°C° 0 mm 1 m/s 753 mmHg 97%
    04:00 +25°C° 0 mm 1 m/s 753 mmHg 98%
    05:00 +26°C° 0 mm 1 m/s 753 mmHg 97%
    06:00 +26°C° 0 mm 1 m/s 754 mmHg 97%
    07:00 +24°C° 0 mm 0 m/s 754 mmHg 96%
    08:00 +27°C° 0.1 mm 1 m/s 755 mmHg 89%
    09:00 +29°C° 0.1 mm 1 m/s 755 mmHg 81%
    10:00 +30°C° 0.1 mm 1 m/s 756 mmHg 73%
    11:00 +32°C° 0.1 mm 1 m/s 755 mmHg 67%
    12:00 +33°C° 0.1 mm 1 m/s 754 mmHg 60%
    13:00 +35°C° 0.1 mm 1 m/s 753 mmHg 53%
    14:00 +34°C° 0.8 mm 1 m/s 753 mmHg 59%
    15:00 +34°C° 0.8 mm 2 m/s 752 mmHg 65%
    16:00 +32°C° 0.8 mm 2 m/s 751 mmHg 71%
    17:00 +30°C° 0 mm 2 m/s 752 mmHg 76%
    18:00 +29°C° 0 mm 2 m/s 752 mmHg 81%
    19:00 +28°C° 0 mm 1 m/s 753 mmHg 86%
    20:00 +27°C° 0 mm 1 m/s 753 mmHg 88%
    21:00 +27°C° 0 mm 1 m/s 754 mmHg 90%
    22:00 +27°C° 0 mm 1 m/s 755 mmHg 91%
    23:00 +26°C° 0 mm 1 m/s 754 mmHg 92%

    23 Ianuarie, Miercuri

    Timp Temperatura Precipitaţii Vânt Presiune Umiditate
    00:00 +26°C° 0 mm 1 m/s 754 mmHg 93%
    01:00 +26°C° 0 mm 1 m/s 754 mmHg 94%
    02:00 +26°C° 0 mm 1 m/s 754 mmHg 94%
    03:00 +26°C° 0 mm 1 m/s 754 mmHg 93%
    04:00 +26°C° 0 mm 1 m/s 753 mmHg 93%
    05:00 +26°C° 0 mm 1 m/s 754 mmHg 92%
    06:00 +26°C° 0 mm 1 m/s 754 mmHg 92%
    07:00 +26°C° 0 mm 1 m/s 754 mmHg 92%
    08:00 +28°C° 0 mm 1 m/s 754 mmHg 82%
    09:00 +30°C° 0 mm 1 m/s 755 mmHg 73%
    10:00 +32°C° 0 mm 2 m/s 755 mmHg 64%
    11:00 +32°C° 0 mm 1 m/s 754 mmHg 62%
    12:00 +33°C° 0 mm 1 m/s 754 mmHg 61%
    13:00 +33°C° 0 mm 1 m/s 753 mmHg 59%
    14:00 +33°C° 0 mm 1 m/s 752 mmHg 60%
    15:00 +33°C° 0 mm 1 m/s 752 mmHg 61%
    16:00 +33°C° 0 mm 1 m/s 751 mmHg 62%
    17:00 +31°C° 0.4 mm 1 m/s 752 mmHg 70%
    18:00 +30°C° 0.4 mm 1 m/s 752 mmHg 79%
    19:00 +28°C° 0.4 mm 1 m/s 753 mmHg 87%
    20:00 +28°C° 0.2 mm 1 m/s 753 mmHg 89%
    21:00 +27°C° 0.2 mm 1 m/s 754 mmHg 91%
    22:00 +27°C° 0.2 mm 1 m/s 754 mmHg 93%
    23:00 +27°C° 0 mm 1 m/s 754 mmHg 94%

    24 Ianuarie, Joi

    Timp Temperatura Precipitaţii Vânt Presiune Umiditate
    00:00 +26°C° 0 mm 1 m/s 753 mmHg 95%
    01:00 +26°C° 0 mm 1 m/s 753 mmHg 96%
    02:00 +26°C° 0 mm 1 m/s 753 mmHg 97%
    03:00 +26°C° 0 mm 1 m/s 752 mmHg 97%
    04:00 +26°C° 0 mm 1 m/s 752 mmHg 98%
    05:00 +24°C° 0 mm 0 m/s 752 mmHg 97%
    06:00 +24°C° 0 mm 0 m/s 753 mmHg 97%
    07:00 +24°C° 0 mm 0 m/s 753 mmHg 96%
    08:00 +25°C° 0 mm 0 m/s 753 mmHg 92%
    09:00 +26°C° 0 mm 0 m/s 753 mmHg 87%
    10:00 +27°C° 0 mm 0 m/s 754 mmHg 82%
    11:00 +30°C° 0 mm 1 m/s 753 mmHg 75%
    12:00 +32°C° 0 mm 1 m/s 752 mmHg 68%
    13:00 +33°C° 0 mm 1 m/s 752 mmHg 62%
    14:00 +33°C° 0 mm 1 m/s 751 mmHg 60%
    15:00 +34°C° 0 mm 1 m/s 751 mmHg 59%
    16:00 +35°C° 0 mm 2 m/s 750 mmHg 57%
    17:00 +32°C° 0.3 mm 2 m/s 750 mmHg 65%
    18:00 +30°C° 0.3 mm 2 m/s 751 mmHg 74%
    19:00 +29°C° 0.3 mm 2 m/s 751 mmHg 82%
    20:00 +28°C° 0.8 mm 2 m/s 752 mmHg 86%
    21:00 +27°C° 0.8 mm 1 m/s 753 mmHg 90%
    22:00 +27°C° 0.8 mm 1 m/s 753 mmHg 95%
    23:00 +27°C° 0 mm 1 m/s 753 mmHg 95%

    25 Ianuarie, Vineri

    Timp Temperatura Precipitaţii Vânt Presiune Umiditate
    00:00 +26°C° 0 mm 1 m/s 753 mmHg 96%
    01:00 +26°C° 0 mm 1 m/s 753 mmHg 96%
    02:00 +26°C° 0 mm 1 m/s 752 mmHg 96%
    03:00 +26°C° 0 mm 1 m/s 752 mmHg 97%
    04:00 +26°C° 0 mm 1 m/s 752 mmHg 97%
    05:00 +24°C° 0 mm 0 m/s 752 mmHg 97%
    06:00 +24°C° 0 mm 0 m/s 753 mmHg 96%
    07:00 +24°C° 0 mm 0 m/s 753 mmHg 96%
    08:00 +26°C° 0 mm 0 m/s 754 mmHg 88%
    09:00 +29°C° 0 mm 1 m/s 754 mmHg 79%
    10:00 +31°C° 0 mm 1 m/s 754 mmHg 71%
    11:00 +31°C° 0 mm 1 m/s 753 mmHg 71%
    12:00 +29°C° 0 mm 0 m/s 753 mmHg 71%
    13:00 +29°C° 0 mm 0 m/s 752 mmHg 71%
    14:00 +32°C° 0 mm 1 m/s 751 mmHg 66%
    15:00 +33°C° 0 mm 1 m/s 751 mmHg 61%
    16:00 +35°C° 0 mm 2 m/s 750 mmHg 55%
    17:00 +32°C° 1.9 mm 2 m/s 751 mmHg 67%
    18:00 +29°C° 1.9 mm 2 m/s 752 mmHg 79%
    19:00 +27°C° 1.9 mm 2 m/s 752 mmHg 91%
    20:00 +27°C° 0.8 mm 2 m/s 753 mmHg 92%
    21:00 +27°C° 0.8 mm 2 m/s 753 mmHg 93%
    22:00 +26°C° 0.8 mm 1 m/s 754 mmHg 93%
    23:00 +26°C° 0 mm 1 m/s 754 mmHg 94%
    Arată mai mult